Weather History for Sturgeon Bay, WI

Change the Weather History Date:

Saturday, August 16, 2014

  Actual Average Record
Temperature  
Mean Temperature 66 °F -  
Max Temperature 75 °F 79 °F 96 °F (1913)
Min Temperature 57 °F 57 °F 40 °F (1912)
Cooling Degree Days 1    
Growing Degree Days 16 (Base 50)    
Moisture  
Dew Point 61 °F    
Average Humidity 85    
Maximum Humidity 88    
Minimum Humidity 73    
Precipitation  
Precipitation 0.00 in - - ()
Sea Level Pressure  
Sea Level Pressure 29.88 in    
Wind  
Wind Speed 9 mph (SW)    
Max Wind Speed 15 mph    
Max Gust Speed 21 mph    
Visibility 10 miles    
Events Thunderstorm    
Averages and records for this station are not official NWS values.
T = Trace of Precipitation, MM = Missing Value Source: NWS Daily Summary

Daily Weather History Graph

Daily Weather History Graph

Search for Another Location

Airport:

Trip Planner

Search our weather history database for the weather conditions in past years. The results will help you decide how hot, cold, wet, or windy it might be!

Date:

Astronomy

Aug. 16, 2014 Rise Set
Actual Time 5:52 AM CDT 7:54 PM CDT
Civil Twilight 5:21 AM CDT 8:25 PM CDT
Nautical Twilight 4:42 AM CDT 9:04 PM CDT
Astronomical Twilight 3:59 AM CDT 9:47 PM CDT
Moon 11:18 PM CDT (8/16) 12:57 PM CDT (8/16)
Length of Visible Light 15h 04m
Length of Day
14h 01m
Waning Gibbous, 58% of the Moon is Illuminated
Aug 16
Waning Gibbous
Aug 17
Last Quarter
Aug 25
New
Sep 2
First Quarter
Sep 8
Full

Hourly Weather History & Observations

Time (CDT) Temp. Dew Point Humidity Pressure Visibility Wind Dir Wind Speed Gust Speed Precip Events Conditions
12:15 AM 62.6 °F 57.2 °F 82% 29.85 in 10.0 mi SSW 8.1 mph - N/A   Clear
12:35 AM 62.6 °F 57.2 °F 82% 29.85 in 10.0 mi SSW 8.1 mph - N/A   Clear
12:55 AM 62.6 °F 57.2 °F 82% 29.84 in 10.0 mi SSW 8.1 mph - N/A   Clear
1:15 AM 64.4 °F 59.0 °F 83% 29.83 in 10.0 mi SW 8.1 mph - N/A   Clear
1:35 AM 66.2 °F 60.8 °F 83% 29.83 in 10.0 mi SW 8.1 mph - N/A   Clear
1:55 AM 66.2 °F 60.8 °F 83% 29.84 in 10.0 mi WSW 9.2 mph - N/A   Clear
2:15 AM 68.0 °F 62.6 °F 83% 29.84 in 10.0 mi WSW 11.5 mph - N/A   Clear
2:35 AM 68.0 °F 62.6 °F 83% 29.84 in 10.0 mi WSW 10.4 mph - N/A   Clear
2:55 AM 66.2 °F 62.6 °F 88% 29.84 in 10.0 mi SW 10.4 mph - N/A   Clear
3:15 AM 66.2 °F 62.6 °F 88% 29.84 in 10.0 mi WSW 9.2 mph - N/A   Clear
3:35 AM 66.2 °F 62.6 °F 88% 29.83 in 10.0 mi WSW 9.2 mph - N/A   Clear
3:55 AM 66.2 °F 62.6 °F 88% 29.82 in 10.0 mi WSW 10.4 mph - N/A   Clear
4:15 AM 66.2 °F 62.6 °F 88% 29.82 in 10.0 mi WSW 9.2 mph - N/A   Clear
4:35 AM 66.2 °F 62.6 °F 88% 29.82 in 10.0 mi WSW 9.2 mph - N/A   Clear
4:55 AM 66.2 °F 62.6 °F 88% 29.82 in 10.0 mi SW 11.5 mph - N/A   Clear
5:15 AM 66.2 °F 62.6 °F 88% 29.82 in 10.0 mi SW 11.5 mph - N/A   Clear
5:35 AM 66.2 °F 62.6 °F 88% 29.82 in 10.0 mi SW 12.7 mph - N/A   Clear
5:55 AM 66.2 °F 62.6 °F 88% 29.82 in 10.0 mi SW 11.5 mph - N/A   Scattered Clouds
6:15 AM 66.2 °F 62.6 °F 88% 29.82 in 10.0 mi SW 11.5 mph - N/A   Mostly Cloudy
6:35 AM 66.2 °F 62.6 °F 88% 29.82 in 10.0 mi WSW 11.5 mph - N/A   Scattered Clouds
6:55 AM 66.2 °F 62.6 °F 88% 29.82 in 10.0 mi WSW 15.0 mph - N/A   Partly Cloudy
7:15 AM 66.2 °F 62.6 °F 88% 29.82 in 10.0 mi WSW 15.0 mph 19.6 mph N/A   Mostly Cloudy
7:35 AM 66.2 °F 62.6 °F 88% 29.83 in 10.0 mi WSW 13.8 mph 20.7 mph N/A   Overcast
7:55 AM 66.2 °F 62.6 °F 88% 29.83 in 10.0 mi WSW 13.8 mph 18.4 mph N/A   Overcast
8:15 AM 66.2 °F 62.6 °F 88% 29.83 in 10.0 mi West 12.7 mph 19.6 mph N/A   Overcast
8:35 AM 66.2 °F 62.6 °F 88% 29.83 in 10.0 mi WSW 12.7 mph - N/A   Mostly Cloudy
8:55 AM 68.0 °F 64.4 °F 88% 29.82 in 10.0 mi WSW 13.8 mph - N/A   Mostly Cloudy
9:15 AM 68.0 °F 64.4 °F 88% 29.83 in 10.0 mi West 12.7 mph - N/A   Mostly Cloudy
9:35 AM 68.0 °F 62.6 °F 83% 29.84 in 10.0 mi West 12.7 mph - N/A   Overcast
9:55 AM 68.0 °F 62.6 °F 83% 29.84 in 10.0 mi West 11.5 mph - N/A   Mostly Cloudy
10:15 AM 66.2 °F 62.6 °F 88% 29.84 in 8.0 mi West 10.4 mph - N/A   Overcast
10:35 AM 68.0 °F 64.4 °F 88% 29.84 in 8.0 mi West 6.9 mph - N/A   Overcast
10:55 AM 69.8 °F 64.4 °F 83% 29.84 in 10.0 mi West 11.5 mph - N/A   Overcast
11:15 AM 69.8 °F 64.4 °F 83% 29.85 in 8.0 mi WSW 12.7 mph - N/A   Overcast
11:35 AM 69.8 °F 66.2 °F 88% 29.85 in 10.0 mi WSW 10.4 mph - N/A   Scattered Clouds
11:55 AM 71.6 °F 66.2 °F 83% 29.85 in 10.0 mi West 10.4 mph - N/A   Clear
12:15 PM 73.4 °F 66.2 °F 78% 29.85 in 10.0 mi West 13.8 mph - N/A   Scattered Clouds
12:35 PM 73.4 °F 66.2 °F 78% 29.84 in 10.0 mi West 15.0 mph - N/A   Mostly Cloudy
12:55 PM 75.2 °F 66.2 °F 73% 29.84 in 10.0 mi West 12.7 mph 17.3 mph N/A   Clear
1:15 PM 75.2 °F 66.2 °F 73% 29.85 in 10.0 mi WSW 10.4 mph - N/A   Partly Cloudy
1:35 PM 75.2 °F 66.2 °F 73% 29.85 in 10.0 mi NW 5.8 mph - N/A   Mostly Cloudy
1:55 PM 73.4 °F 68.0 °F 83% 29.85 in 8.0 mi NNW 6.9 mph - N/A   Mostly Cloudy
2:15 PM 71.6 °F 66.2 °F 83% 29.86 in 8.0 mi ENE 10.4 mph - N/A   Overcast
2:35 PM 66.2 °F 62.6 °F 88% 29.87 in 5.0 mi ENE 8.1 mph - N/A Thunderstorm Overcast
2:55 PM 66.2 °F 62.6 °F 88% 29.87 in 8.0 mi ENE 4.6 mph - N/A Thunderstorm Overcast
3:15 PM 66.2 °F 62.6 °F 88% 29.88 in 8.0 mi East 5.8 mph - N/A   Overcast
3:35 PM 66.2 °F 62.6 °F 88% 29.89 in 10.0 mi East 3.5 mph - N/A   Overcast
3:55 PM 66.2 °F 62.6 °F 88% 29.89 in 10.0 mi ESE 3.5 mph - N/A   Overcast
4:15 PM 66.2 °F 62.6 °F 88% 29.90 in 10.0 mi ESE 5.8 mph - N/A   Overcast
4:35 PM 66.2 °F 62.6 °F 88% 29.90 in 10.0 mi ESE 4.6 mph - N/A   Overcast
4:55 PM 66.2 °F 62.6 °F 88% 29.90 in 10.0 mi East 4.6 mph - N/A   Overcast
5:15 PM 66.2 °F 62.6 °F 88% 29.91 in 10.0 mi ESE 4.6 mph - N/A   Overcast
5:35 PM 66.2 °F 62.6 °F 88% 29.91 in 10.0 mi East 4.6 mph - N/A   Overcast
5:55 PM 66.2 °F 62.6 °F 88% 29.91 in 10.0 mi ESE 3.5 mph - N/A   Mostly Cloudy
6:15 PM 68.0 °F 62.6 °F 83% 29.92 in 10.0 mi ENE 6.9 mph - N/A   Mostly Cloudy
6:35 PM 66.2 °F 60.8 °F 83% 29.92 in 10.0 mi ENE 5.8 mph - N/A   Mostly Cloudy
6:55 PM 66.2 °F 60.8 °F 83% 29.92 in 10.0 mi East 6.9 mph - N/A   Partly Cloudy
7:15 PM 64.4 °F 59.0 °F 83% 29.93 in 10.0 mi East 6.9 mph - N/A   Clear
7:35 PM 64.4 °F 57.2 °F 77% 29.94 in 10.0 mi East 8.1 mph - N/A   Clear
7:55 PM 62.6 °F 57.2 °F 82% 29.94 in 10.0 mi East 8.1 mph - N/A   Clear
8:15 PM 62.6 °F 57.2 °F 82% 29.96 in 10.0 mi East 5.8 mph - N/A   Partly Cloudy
8:35 PM 62.6 °F 57.2 °F 82% 29.96 in 10.0 mi East 3.5 mph - N/A   Partly Cloudy
8:55 PM 62.6 °F 57.2 °F 82% 29.97 in 10.0 mi ENE 5.8 mph - N/A   Clear
9:15 PM 60.8 °F 57.2 °F 88% 29.98 in 10.0 mi ENE 5.8 mph - N/A   Scattered Clouds
9:35 PM 60.8 °F 57.2 °F 88% 29.98 in 10.0 mi NE 9.2 mph - N/A   Partly Cloudy
9:55 PM 60.8 °F 55.4 °F 82% 29.99 in 10.0 mi NE 10.4 mph - N/A   Clear
10:15 PM 60.8 °F 55.4 °F 82% 29.99 in 10.0 mi NE 9.2 mph - N/A   Clear
10:35 PM 59.0 °F 55.4 °F 88% 30.00 in 10.0 mi NE 8.1 mph - N/A   Clear
10:55 PM 59.0 °F 53.6 °F 82% 30.00 in 10.0 mi NE 9.2 mph - N/A   Clear
11:15 PM 59.0 °F 53.6 °F 82% 30.00 in 10.0 mi NE 9.2 mph - N/A   Clear
11:35 PM 57.2 °F 53.6 °F 88% 30.00 in 10.0 mi NE 9.2 mph - N/A   Scattered Clouds
11:55 PM 57.2 °F 53.6 °F 88% 30.01 in 10.0 mi NNE 6.9 mph - N/A   Mostly Cloudy